GOJOK EGHQ-EGHQ

Flight info

Callsign GOJOK
Flight time 1h 23m
Altitude 3000
Route SCILLY ISLES
Aircraft PA24/L-VGD/A

Departure

Time 2026-05-04 22:00
Airport Cornwall Airport Newquay (EGHQ)

Arrival

Time 2026-05-04 23:24
Airport Cornwall Airport Newquay (EGHQ)
Time Latitude Longitude Altitude Speed Heading
2026-05-04 21:33 50.44451 -4.99686 342 ft 0 kts 154°
2026-05-04 21:51 50.44440 -4.99678 343 ft 0 kts 160°
2026-05-04 21:51 50.44420 -4.99701 343 ft 8 kts 241°
2026-05-04 21:52 50.44388 -4.99787 338 ft 6 kts 181°
2026-05-04 21:52 50.44359 -4.99735 344 ft 8 kts 120°
2026-05-04 21:52 50.44322 -4.99643 347 ft 10 kts 123°
2026-05-04 21:52 50.44294 -4.99563 350 ft 9 kts 121°
2026-05-04 21:53 50.44256 -4.99461 354 ft 12 kts 118°
2026-05-04 21:53 50.44213 -4.99349 353 ft 12 kts 119°
2026-05-04 21:53 50.44165 -4.99217 354 ft 15 kts 119°
2026-05-04 21:53 50.44109 -4.99078 361 ft 14 kts 116°
2026-05-04 21:54 50.44067 -4.98961 361 ft 13 kts 119°
2026-05-04 21:54 50.44013 -4.98824 364 ft 16 kts 119°
2026-05-04 21:54 50.43954 -4.98660 371 ft 18 kts 120°
2026-05-04 21:54 50.43885 -4.98471 375 ft 22 kts 120°
2026-05-04 21:55 50.43806 -4.98260 378 ft 22 kts 123°
2026-05-04 21:55 50.43730 -4.98068 384 ft 19 kts 119°
2026-05-04 21:55 50.43661 -4.97908 387 ft 17 kts 140°
2026-05-04 21:55 50.43622 -4.97873 388 ft 0 kts 155°
2026-05-04 21:58 50.43613 -4.97866 388 ft 7 kts 155°
2026-05-04 21:58 50.43543 -4.97851 390 ft 11 kts 176°
2026-05-04 21:59 50.43475 -4.97884 390 ft 13 kts 244°
2026-05-04 21:59 50.43530 -4.98092 382 ft 47 kts 299°
2026-05-04 21:59 50.43788 -4.98788 450 ft 84 kts 299°
2026-05-04 21:59 50.44071 -4.99627 655 ft 95 kts 303°
2026-05-04 22:00 50.44415 -5.00539 931 ft 97 kts 306°
2026-05-04 22:00 50.44724 -5.01503 1181 ft 100 kts 297°
2026-05-04 22:00 50.44983 -5.02552 1431 ft 102 kts 295°
2026-05-04 22:00 50.45022 -5.03639 1709 ft 102 kts 262°
2026-05-04 22:01 50.44661 -5.04597 1917 ft 108 kts 228°
2026-05-04 22:01 50.44047 -5.05340 2096 ft 116 kts 216°
2026-05-04 22:01 50.43338 -5.05939 2357 ft 114 kts 200°
2026-05-04 22:01 50.42592 -5.06285 2576 ft 115 kts 188°
2026-05-04 22:02 50.41794 -5.06335 2832 ft 114 kts 170°
2026-05-04 22:02 50.41009 -5.06292 3061 ft 114 kts 181°
2026-05-04 22:02 50.40232 -5.06567 3286 ft 115 kts 199°
2026-05-04 22:02 50.39522 -5.07128 3516 ft 115 kts 209°
2026-05-04 22:03 50.38841 -5.07913 3605 ft 126 kts 227°
2026-05-04 22:03 50.38366 -5.09051 3792 ft 128 kts 241°
2026-05-04 22:03 50.37872 -5.10255 3867 ft 135 kts 233°
2026-05-04 22:03 50.37341 -5.11466 3974 ft 137 kts 237°
2026-05-04 22:04 50.36793 -5.12620 4226 ft 127 kts 232°
2026-05-04 22:04 50.36221 -5.13713 4344 ft 131 kts 228°
2026-05-04 22:04 50.35585 -5.14796 4337 ft 143 kts 226°
2026-05-04 22:04 50.34900 -5.15947 4402 ft 142 kts 227°
2026-05-04 22:05 50.34220 -5.17127 4382 ft 150 kts 229°
2026-05-04 22:05 50.33531 -5.18388 4345 ft 155 kts 228°
2026-05-04 22:05 50.32791 -5.19654 4345 ft 157 kts 226°
2026-05-04 22:05 50.32028 -5.20853 4403 ft 155 kts 224°
2026-05-04 22:06 50.31268 -5.22048 4367 ft 158 kts 224°
2026-05-04 22:06 50.30502 -5.23284 4342 ft 160 kts 227°
2026-05-04 22:06 50.29797 -5.24661 4286 ft 162 kts 233°
2026-05-04 22:06 50.29147 -5.26082 4320 ft 160 kts 234°
2026-05-04 22:07 50.28495 -5.27505 4279 ft 163 kts 234°
2026-05-04 22:07 50.27852 -5.28984 4194 ft 165 kts 236°
2026-05-04 22:07 50.27185 -5.30415 4215 ft 162 kts 232°
2026-05-04 22:07 50.26518 -5.31841 4168 ft 163 kts 234°
2026-05-04 22:08 50.25860 -5.33260 4136 ft 163 kts 234°
2026-05-04 22:08 50.25198 -5.34678 4129 ft 162 kts 233°
2026-05-04 22:08 50.24535 -5.36103 4090 ft 162 kts 236°
2026-05-04 22:08 50.23932 -5.37601 4069 ft 163 kts 240°
2026-05-04 22:09 50.23395 -5.39160 4051 ft 163 kts 244°
2026-05-04 22:09 50.22916 -5.40760 4025 ft 162 kts 246°
2026-05-04 22:09 50.22486 -5.42382 4011 ft 162 kts 249°
2026-05-04 22:09 50.22073 -5.44029 3986 ft 163 kts 250°
2026-05-04 22:10 50.21705 -5.45676 3954 ft 164 kts 259°
2026-05-04 22:10 50.21754 -5.47404 4014 ft 156 kts 284°
2026-05-04 22:10 50.21711 -5.49079 4002 ft 155 kts 248°
2026-05-04 22:10 50.20938 -5.50180 4003 ft 158 kts 197°
2026-05-04 22:11 50.19883 -5.50030 4015 ft 153 kts 150°
2026-05-04 22:11 50.19224 -5.48794 3962 ft 152 kts 105°
2026-05-04 22:11 50.19295 -5.47207 3988 ft 146 kts 62°
2026-05-04 22:11 50.20061 -5.46237 3994 ft 147 kts 16°
2026-05-04 22:12 50.21057 -5.46423 3958 ft 151 kts 334°
2026-05-04 22:12 50.21763 -5.47617 3954 ft 154 kts 298°
2026-05-04 22:12 50.21974 -5.49272 3887 ft 159 kts 273°
2026-05-04 22:12 50.21914 -5.50995 3901 ft 158 kts 266°
2026-05-04 22:13 50.21790 -5.52706 3870 ft 159 kts 265°
2026-05-04 22:13 50.21599 -5.54393 3916 ft 155 kts 257°
2026-05-04 22:13 50.21266 -5.55991 3936 ft 156 kts 250°
2026-05-04 22:13 50.20819 -5.57515 3944 ft 158 kts 244°
2026-05-04 22:14 50.20293 -5.59052 3824 ft 164 kts 243°
2026-05-04 22:14 50.19744 -5.60540 3975 ft 153 kts 239°
2026-05-04 22:14 50.19142 -5.61911 3973 ft 154 kts 234°
2026-05-04 22:14 50.18504 -5.63262 4007 ft 155 kts 236°
2026-05-04 22:15 50.17914 -5.64669 3998 ft 156 kts 245°
2026-05-04 22:15 50.17545 -5.66258 4000 ft 155 kts 255°
2026-05-04 22:15 50.17115 -5.67771 4012 ft 154 kts 239°
2026-05-04 22:15 50.16422 -5.69069 3975 ft 156 kts 223°
2026-05-04 22:16 50.15564 -5.70080 4022 ft 154 kts 214°
2026-05-04 22:16 50.14661 -5.70976 4011 ft 155 kts 207°
2026-05-04 22:16 50.13659 -5.71542 3982 ft 155 kts 193°
2026-05-04 22:16 50.12621 -5.71901 4030 ft 151 kts 189°
2026-05-04 22:17 50.11582 -5.72224 3958 ft 155 kts 200°
2026-05-04 22:17 50.10784 -5.73273 4053 ft 147 kts 234°
2026-05-04 22:17 50.10311 -5.74725 3924 ft 157 kts 251°
2026-05-04 22:17 50.10042 -5.76369 3922 ft 153 kts 260°
2026-05-04 22:18 50.09857 -5.77939 4070 ft 143 kts 264°
2026-05-04 22:18 50.09796 -5.79484 4060 ft 145 kts 272°
2026-05-04 22:18 50.09804 -5.81059 4059 ft 145 kts 274°
2026-05-04 22:18 50.09829 -5.82619 3997 ft 149 kts 270°
2026-05-04 22:19 50.09584 -5.84182 3964 ft 151 kts 247°
2026-05-04 22:19 50.09117 -5.85628 4043 ft 144 kts 243°
2026-05-04 22:19 50.08658 -5.87011 4037 ft 148 kts 245°
2026-05-04 22:19 50.08174 -5.88455 3961 ft 152 kts 243°
2026-05-04 22:20 50.07645 -5.89863 4004 ft 149 kts 240°
2026-05-04 22:20 50.07164 -5.91259 4096 ft 145 kts 244°
2026-05-04 22:20 50.06709 -5.92687 4045 ft 151 kts 244°
2026-05-04 22:20 50.06239 -5.94164 4041 ft 153 kts 245°
2026-05-04 22:21 50.05791 -5.95664 4017 ft 156 kts 249°
2026-05-04 22:21 50.05425 -5.97240 4032 ft 153 kts 253°
2026-05-04 22:21 50.05102 -5.98814 4032 ft 152 kts 255°
2026-05-04 22:21 50.04805 -6.00399 4026 ft 153 kts 253°
2026-05-04 22:22 50.04342 -6.01915 4000 ft 156 kts 247°
2026-05-04 22:22 50.03947 -6.03467 4044 ft 153 kts 251°
2026-05-04 22:22 50.03585 -6.05031 4039 ft 155 kts 253°
2026-05-04 22:22 50.03265 -6.06626 4048 ft 154 kts 256°
2026-05-04 22:23 50.02979 -6.08192 4062 ft 152 kts 256°
2026-05-04 22:23 50.02694 -6.09778 4060 ft 153 kts 256°
2026-05-04 22:23 50.02410 -6.11373 4072 ft 153 kts 256°
2026-05-04 22:23 50.02098 -6.12973 4028 ft 155 kts 253°
2026-05-04 22:24 50.01751 -6.14575 4010 ft 156 kts 252°
2026-05-04 22:24 50.01389 -6.16164 4008 ft 156 kts 252°
2026-05-04 22:24 50.01019 -6.17751 4002 ft 156 kts 251°
2026-05-04 22:24 50.00659 -6.19304 4001 ft 154 kts 251°
2026-05-04 22:25 50.00291 -6.20868 4003 ft 155 kts 251°
2026-05-04 22:25 49.99916 -6.22438 4002 ft 155 kts 251°
2026-05-04 22:25 49.99547 -6.24006 4006 ft 154 kts 251°
2026-05-04 22:25 49.99176 -6.25569 4006 ft 153 kts 251°
2026-05-04 22:26 49.98807 -6.27118 4001 ft 152 kts 251°
2026-05-04 22:26 49.98440 -6.28661 4004 ft 152 kts 251°
2026-05-04 22:26 49.98072 -6.30205 4002 ft 153 kts 251°
2026-05-04 22:26 49.97671 -6.31697 3924 ft 151 kts 240°
2026-05-04 22:27 49.96927 -6.32922 3561 ft 159 kts 218°
2026-05-04 22:27 49.95958 -6.33688 3289 ft 156 kts 195°
2026-05-04 22:27 49.94907 -6.33990 3031 ft 152 kts 182°
2026-05-04 22:27 49.93847 -6.33912 2735 ft 153 kts 169°
2026-05-04 22:28 49.92787 -6.33712 2560 ft 153 kts 171°
2026-05-04 22:28 49.91776 -6.33486 2599 ft 143 kts 167°
2026-05-04 22:28 49.90802 -6.33234 2655 ft 141 kts 167°
2026-05-04 22:28 49.89831 -6.32982 2711 ft 141 kts 168°
2026-05-04 22:29 49.88897 -6.32810 2835 ft 136 kts 173°
2026-05-04 22:29 49.87973 -6.32586 2956 ft 132 kts 154°
2026-05-04 22:29 49.87328 -6.31641 3026 ft 129 kts 110°
2026-05-04 22:29 49.87316 -6.30330 3151 ft 121 kts 63°
2026-05-04 22:30 49.87702 -6.29210 3228 ft 119 kts 58°
2026-05-04 22:30 49.88091 -6.28064 3246 ft 122 kts 67°
2026-05-04 22:30 49.88223 -6.26749 3288 ft 124 kts 85°
2026-05-04 22:30 49.88360 -6.25509 3395 ft 107 kts 74°
2026-05-04 22:31 49.88610 -6.24445 3175 ft 114 kts 52°
2026-05-04 22:31 49.89367 -6.23967 2654 ft 126 kts 358°
2026-05-04 22:31 49.90185 -6.24358 2325 ft 123 kts 334°
2026-05-04 22:31 49.90844 -6.25173 1979 ft 122 kts 320°
2026-05-04 22:32 49.91464 -6.26056 1733 ft 119 kts 323°
2026-05-04 22:32 49.92105 -6.26829 1531 ft 116 kts 326°
2026-05-04 22:32 49.92731 -6.27603 1318 ft 114 kts 325°
2026-05-04 22:32 49.93292 -6.28442 1180 ft 108 kts 318°
2026-05-04 22:33 49.93684 -6.29358 1146 ft 96 kts 296°
2026-05-04 22:33 49.93773 -6.30380 1054 ft 93 kts 265°
2026-05-04 22:33 49.93451 -6.31186 968 ft 90 kts 221°
2026-05-04 22:33 49.92871 -6.31668 931 ft 100 kts 208°
2026-05-04 22:34 49.92260 -6.32216 965 ft 102 kts 210°
2026-05-04 22:34 49.91575 -6.32310 961 ft 105 kts 154°
2026-05-04 22:34 49.90919 -6.31817 1010 ft 106 kts 154°
2026-05-04 22:34 49.90251 -6.31396 1085 ft 99 kts 151°
2026-05-04 22:35 49.89679 -6.30898 1202 ft 89 kts 142°
2026-05-04 22:35 49.89148 -6.30309 1163 ft 100 kts 136°
2026-05-04 22:35 49.88704 -6.29527 1207 ft 96 kts 104°
2026-05-04 22:35 49.88868 -6.28580 1145 ft 93 kts 45°
2026-05-04 22:36 49.89299 -6.27923 864 ft 83 kts 40°
2026-05-04 22:36 49.89776 -6.27503 588 ft 79 kts 358°
2026-05-04 22:36 49.90269 -6.27833 326 ft 76 kts 327°
2026-05-04 22:36 49.90649 -6.28291 216 ft 63 kts 325°
2026-05-04 22:37 49.90984 -6.28704 136 ft 59 kts 324°
2026-05-04 22:37 49.91279 -6.29094 114 ft 50 kts 315°
2026-05-04 22:37 49.91554 -6.29541 167 ft 67 kts 316°
2026-05-04 22:37 49.91915 -6.30047 343 ft 74 kts 323°
2026-05-04 22:38 49.92338 -6.30557 524 ft 82 kts 322°
2026-05-04 22:38 49.92514 -6.31329 764 ft 87 kts 256°
2026-05-04 22:38 49.92115 -6.32131 970 ft 101 kts 223°
2026-05-04 22:38 49.91518 -6.32928 1023 ft 124 kts 217°
2026-05-04 22:39 49.90655 -6.33005 1075 ft 134 kts 150°
2026-05-04 22:39 49.89908 -6.32192 1302 ft 125 kts 137°
2026-05-04 22:39 49.89302 -6.31338 1190 ft 115 kts 130°
2026-05-04 22:39 49.88827 -6.30451 1129 ft 102 kts 122°
2026-05-04 22:40 49.88405 -6.29624 1058 ft 95 kts 125°
2026-05-04 22:40 49.88056 -6.28782 931 ft 96 kts 101°
2026-05-04 22:40 49.88218 -6.27856 833 ft 87 kts 44°
2026-05-04 22:40 49.88604 -6.27200 773 ft 78 kts 44°
2026-05-04 22:41 49.88994 -6.26667 714 ft 74 kts 11°
2026-05-04 22:41 49.89493 -6.26951 580 ft 82 kts 329°
2026-05-04 22:41 49.89958 -6.27487 434 ft 84 kts 327°
2026-05-04 22:41 49.90424 -6.28014 306 ft 81 kts 326°
2026-05-04 22:42 49.90853 -6.28541 181 ft 76 kts 324°
2026-05-04 22:42 49.91235 -6.29043 112 ft 64 kts 325°
2026-05-04 22:42 49.91506 -6.29402 114 ft 52 kts 309°
2026-05-04 22:42 49.91775 -6.29959 230 ft 71 kts 311°
2026-05-04 22:43 49.92109 -6.30618 397 ft 83 kts 310°
2026-05-04 22:43 49.92412 -6.31332 631 ft 85 kts 285°
2026-05-04 22:43 49.92194 -6.32245 823 ft 100 kts 231°
2026-05-04 22:43 49.91692 -6.33080 942 ft 114 kts 216°
2026-05-04 22:44 49.90952 -6.33037 1017 ft 113 kts 153°
2026-05-04 22:44 49.90256 -6.32423 1048 ft 111 kts 142°
2026-05-04 22:44 49.89693 -6.31734 1060 ft 99 kts 136°
2026-05-04 22:44 49.89193 -6.31043 1038 ft 94 kts 132°
2026-05-04 22:45 49.88778 -6.30310 1060 ft 86 kts 116°
2026-05-04 22:45 49.88250 -6.28578 995 ft 91 kts 104°
2026-05-04 22:45 49.88397 -6.27646 804 ft 95 kts 46°
2026-05-04 22:46 49.88777 -6.26973 786 ft 79 kts 42°
2026-05-04 22:46 49.89264 -6.26670 690 ft 79 kts 348°
2026-05-04 22:46 49.89746 -6.27094 547 ft 79 kts 323°
2026-05-04 22:46 49.90148 -6.27650 412 ft 78 kts 322°
2026-05-04 22:47 49.90560 -6.28175 231 ft 70 kts 324°
2026-05-04 22:47 49.90900 -6.28603 147 ft 57 kts 323°
2026-05-04 22:47 49.91199 -6.29002 101 ft 55 kts 324°
2026-05-04 22:47 49.91446 -6.29320 117 ft 53 kts 316°
2026-05-04 22:48 49.91759 -6.29799 252 ft 63 kts 315°
2026-05-04 22:48 49.92055 -6.30320 465 ft 65 kts 312°
2026-05-04 22:48 49.92139 -6.30996 661 ft 76 kts 242°
2026-05-04 22:48 49.91641 -6.31439 841 ft 92 kts 193°
2026-05-04 22:49 49.91004 -6.31503 1129 ft 92 kts 170°
2026-05-04 22:49 49.90387 -6.31155 1306 ft 97 kts 136°
2026-05-04 22:49 49.90116 -6.30275 1539 ft 89 kts 83°
2026-05-04 22:49 49.90271 -6.29386 1711 ft 89 kts 64°
2026-05-04 22:50 49.90563 -6.28505 1870 ft 91 kts 54°
2026-05-04 22:50 49.90925 -6.27679 2012 ft 94 kts 46°
2026-05-04 22:50 49.91421 -6.27039 2220 ft 91 kts 35°
2026-05-04 22:50 49.91906 -6.26418 2364 ft 93 kts 41°
2026-05-04 22:51 49.92312 -6.25643 2539 ft 93 kts 58°
2026-05-04 22:51 49.92586 -6.24720 2687 ft 95 kts 65°
2026-05-04 22:51 49.92769 -6.23734 2840 ft 96 kts 76°
2026-05-04 22:51 49.92930 -6.22714 2983 ft 98 kts 65°
2026-05-04 22:52 49.93164 -6.21749 3163 ft 94 kts 68°
2026-05-04 22:52 49.93378 -6.20769 3278 ft 97 kts 66°
2026-05-04 22:52 49.93619 -6.19803 3445 ft 96 kts 64°
2026-05-04 22:52 49.93898 -6.18827 3505 ft 103 kts 62°
2026-05-04 22:53 49.94234 -6.17785 3533 ft 112 kts 61°
2026-05-04 22:53 49.94608 -6.16684 3531 ft 120 kts 60°
2026-05-04 22:53 49.95024 -6.15528 3541 ft 126 kts 59°
2026-05-04 22:53 49.95464 -6.14319 3540 ft 132 kts 59°
2026-05-04 22:54 49.95930 -6.13050 3509 ft 138 kts 59°
2026-05-04 22:54 49.96409 -6.11744 3509 ft 140 kts 59°
2026-05-04 22:54 49.96892 -6.10431 3509 ft 141 kts 59°
2026-05-04 22:54 49.97367 -6.09107 3509 ft 141 kts 59°
2026-05-04 22:55 49.97847 -6.07802 3508 ft 141 kts 59°
2026-05-04 22:55 49.98333 -6.06473 3509 ft 142 kts 59°
2026-05-04 22:55 49.98818 -6.05128 3497 ft 142 kts 60°
2026-05-04 22:55 49.99302 -6.03790 3504 ft 141 kts 59°
2026-05-04 22:56 49.99780 -6.02462 3505 ft 141 kts 59°
2026-05-04 22:56 50.00258 -6.01131 3506 ft 141 kts 59°
2026-05-04 22:56 50.00575 -6.00247 3506 ft 141 kts 59°
2026-05-04 22:56 50.01058 -5.98923 3506 ft 141 kts 59°
2026-05-04 22:57 50.01695 -5.97172 3506 ft 140 kts 59°
2026-05-04 22:57 50.02168 -5.95844 3506 ft 140 kts 59°
2026-05-04 22:57 50.02646 -5.94515 3506 ft 141 kts 59°
2026-05-04 22:57 50.03118 -5.93185 3509 ft 140 kts 59°
2026-05-04 22:58 50.03591 -5.91855 3508 ft 140 kts 60°
2026-05-04 22:58 50.04059 -5.90527 3508 ft 141 kts 59°
2026-05-04 22:58 50.04372 -5.89645 3507 ft 141 kts 60°
2026-05-04 22:58 50.04842 -5.88304 3507 ft 141 kts 59°
2026-05-04 22:59 50.05323 -5.86979 3508 ft 141 kts 59°
2026-05-04 22:59 50.05956 -5.85220 3508 ft 141 kts 59°
2026-05-04 22:59 50.06435 -5.83888 3503 ft 141 kts 60°
2026-05-04 22:59 50.06913 -5.82548 3503 ft 142 kts 59°
2026-05-04 23:00 50.07389 -5.81211 3503 ft 141 kts 60°
2026-05-04 23:00 50.07704 -5.80324 3504 ft 141 kts 59°
2026-05-04 23:00 50.08178 -5.78992 3504 ft 140 kts 59°
2026-05-04 23:00 50.08652 -5.77661 3503 ft 141 kts 59°
2026-05-04 23:01 50.09285 -5.75900 3502 ft 141 kts 60°
2026-05-04 23:01 50.09758 -5.74567 3502 ft 140 kts 59°
2026-05-04 23:01 50.10226 -5.73237 3505 ft 140 kts 60°
2026-05-04 23:01 50.10537 -5.72355 3505 ft 141 kts 60°
2026-05-04 23:02 50.11014 -5.71026 3505 ft 141 kts 59°
2026-05-04 23:02 50.11496 -5.69702 3504 ft 140 kts 59°
2026-05-04 23:02 50.11978 -5.68376 3505 ft 140 kts 59°
2026-05-04 23:02 50.12462 -5.67056 3502 ft 141 kts 59°
2026-05-04 23:03 50.13107 -5.65294 3503 ft 142 kts 59°
2026-05-04 23:03 50.13434 -5.64387 3511 ft 142 kts 59°
2026-05-04 23:03 50.13893 -5.63068 3581 ft 137 kts 60°
2026-05-04 23:03 50.14375 -5.61762 3547 ft 140 kts 56°
2026-05-04 23:04 50.14938 -5.60561 3581 ft 138 kts 49°
2026-05-04 23:04 50.15563 -5.59441 3585 ft 139 kts 46°
2026-05-04 23:04 50.16240 -5.58365 3583 ft 139 kts 40°
2026-05-04 23:04 50.17023 -5.57497 3601 ft 137 kts 32°
2026-05-04 23:05 50.17832 -5.56714 3618 ft 137 kts 32°
2026-05-04 23:05 50.18630 -5.55877 3625 ft 139 kts 40°
2026-05-04 23:05 50.19251 -5.54718 3626 ft 141 kts 56°
2026-05-04 23:05 50.19605 -5.53310 3618 ft 142 kts 78°
2026-05-04 23:06 50.19678 -5.51794 3663 ft 140 kts 85°
2026-05-04 23:06 50.19748 -5.50302 3643 ft 138 kts 82°
2026-05-04 23:06 50.19842 -5.48776 3425 ft 144 kts 82°
2026-05-04 23:06 50.20042 -5.47262 3343 ft 141 kts 67°
2026-05-04 23:07 50.20461 -5.45895 3169 ft 140 kts 69°
2026-05-04 23:07 50.20659 -5.44383 2971 ft 142 kts 78°
2026-05-04 23:07 50.20835 -5.42897 2874 ft 138 kts 76°
2026-05-04 23:07 50.21112 -5.41450 2660 ft 141 kts 67°
2026-05-04 23:08 50.21644 -5.39638 2500 ft 136 kts 57°
2026-05-04 23:08 50.21972 -5.38804 2376 ft 136 kts 56°
2026-05-04 23:08 50.22490 -5.37560 2196 ft 136 kts 55°
2026-05-04 23:08 50.22998 -5.36309 2009 ft 136 kts 56°
2026-05-04 23:09 50.23471 -5.35034 1828 ft 135 kts 58°
2026-05-04 23:09 50.23928 -5.33760 1647 ft 135 kts 57°
2026-05-04 23:09 50.24410 -5.32502 1457 ft 135 kts 56°
2026-05-04 23:09 50.24926 -5.31292 1310 ft 133 kts 51°
2026-05-04 23:10 50.25469 -5.30224 1345 ft 118 kts 48°
2026-05-04 23:10 50.25992 -5.29328 1311 ft 112 kts 44°
2026-05-04 23:10 50.26525 -5.28493 1287 ft 107 kts 46°
2026-05-04 23:10 50.27016 -5.27636 1272 ft 101 kts 44°
2026-05-04 23:11 50.27543 -5.26904 1173 ft 107 kts 36°
2026-05-04 23:11 50.28147 -5.26223 1102 ft 102 kts 33°
2026-05-04 23:11 50.28708 -5.25613 1046 ft 99 kts 31°
2026-05-04 23:11 50.29241 -5.25062 1100 ft 86 kts 32°
2026-05-04 23:12 50.29731 -5.24566 1118 ft 81 kts 29°
2026-05-04 23:12 50.30209 -5.24100 1143 ft 85 kts 31°
2026-05-04 23:12 50.30658 -5.23573 1319 ft 77 kts 38°
2026-05-04 23:12 50.31081 -5.22998 1385 ft 84 kts 40°
2026-05-04 23:13 50.31540 -5.22349 1449 ft 92 kts 41°
2026-05-04 23:13 50.31950 -5.21601 1582 ft 92 kts 52°
2026-05-04 23:13 50.32341 -5.20775 1713 ft 90 kts 46°
2026-05-04 23:13 50.32770 -5.20082 1817 ft 91 kts 39°
2026-05-04 23:14 50.33294 -5.19505 1930 ft 90 kts 31°
2026-05-04 23:14 50.33851 -5.19005 1968 ft 97 kts 31°
2026-05-04 23:14 50.34415 -5.18429 2026 ft 96 kts 36°
2026-05-04 23:14 50.34925 -5.17807 1997 ft 95 kts 36°
2026-05-04 23:15 50.35475 -5.17192 1918 ft 94 kts 36°
2026-05-04 23:15 50.35970 -5.16539 1853 ft 95 kts 40°
2026-05-04 23:15 50.36500 -5.15867 1698 ft 98 kts 37°
2026-05-04 23:15 50.37021 -5.15280 1558 ft 90 kts 33°
2026-05-04 23:16 50.37551 -5.14736 1324 ft 90 kts 32°
2026-05-04 23:16 50.38078 -5.14257 1283 ft 85 kts 28°
2026-05-04 23:16 50.38584 -5.13777 1196 ft 88 kts 37°
2026-05-04 23:16 50.39011 -5.13104 1162 ft 87 kts 46°
2026-05-04 23:17 50.39399 -5.12370 1128 ft 88 kts 51°
2026-05-04 23:17 50.39702 -5.11545 1123 ft 87 kts 62°
2026-05-04 23:17 50.39933 -5.10687 1127 ft 86 kts 63°
2026-05-04 23:17 50.40165 -5.09813 1156 ft 86 kts 61°
2026-05-04 23:18 50.40422 -5.08970 1182 ft 86 kts 60°
2026-05-04 23:18 50.40674 -5.08132 1209 ft 84 kts 57°
2026-05-04 23:18 50.40982 -5.07362 1215 ft 85 kts 51°
2026-05-04 23:18 50.41348 -5.06653 1217 ft 83 kts 45°
2026-05-04 23:19 50.41753 -5.06005 1213 ft 83 kts 41°
2026-05-04 23:19 50.42197 -5.05426 1237 ft 84 kts 31°
2026-05-04 23:19 50.42691 -5.04912 1229 ft 85 kts 39°
2026-05-04 23:19 50.42995 -5.04129 1188 ft 92 kts 78°
2026-05-04 23:20 50.42939 -5.03129 1217 ft 88 kts 85°
2026-05-04 23:20 50.43065 -5.02187 1177 ft 93 kts 55°
2026-05-04 23:20 50.43448 -5.01447 1198 ft 84 kts 53°
2026-05-04 23:20 50.43490 -5.00511 1095 ft 93 kts 111°
2026-05-04 23:21 50.43035 -4.99804 1124 ft 93 kts 132°
2026-05-04 23:21 50.42555 -4.99071 1069 ft 98 kts 125°
2026-05-04 23:21 50.42137 -4.98275 1111 ft 92 kts 120°
2026-05-04 23:21 50.41754 -4.97430 1163 ft 93 kts 115°
2026-05-04 23:22 50.41519 -4.96509 1235 ft 94 kts 86°
2026-05-04 23:22 50.41819 -4.95698 1323 ft 86 kts 32°
2026-05-04 23:22 50.42331 -4.95412 1358 ft 83 kts 354°
2026-05-04 23:22 50.42735 -4.96066 1199 ft 94 kts 298°
2026-05-04 23:23 50.43043 -4.96950 905 ft 93 kts 309°
2026-05-04 23:23 50.43407 -4.97777 551 ft 89 kts 305°
2026-05-04 23:23 50.43701 -4.98553 378 ft 71 kts 307°
2026-05-04 23:23 50.43912 -4.99121 349 ft 52 kts 308°
2026-05-04 23:24 50.44061 -4.99487 345 ft 19 kts 303°
2026-05-04 23:24 50.44134 -4.99495 342 ft 8 kts
2026-05-04 23:24 50.44184 -4.99488 345 ft 7 kts
2026-05-04 23:24 50.44237 -4.99484 350 ft 10 kts
2026-05-04 23:25 50.44297 -4.99580 349 ft 17 kts 301°
2026-05-04 23:25 50.44359 -4.99746 347 ft 15 kts 301°
2026-05-04 23:25 50.44401 -4.99773 340 ft 8 kts 67°
2026-05-04 23:25 50.44418 -4.99698 346 ft 8 kts 65°
2026-05-04 23:26 50.44447 -4.99671 343 ft 7 kts 331°
2026-05-04 23:26 50.44449 -4.99696 345 ft 0 kts 163°